Location: Spring Mountain Observatory
(40.2501°N, 75.4333°W)
Time: 08:59:41
(UTC-04:00)

Envisat - Visible Passes

Search period start: 19 July 2018 00:00
Search period end: 29 July 2018 00:00
Orbit: 764 x 766 km, 98.2° (Epoch: 19 July)

Date Brightness Start Highest point End Pass type
(mag) Time Alt. Az. Time Alt. Az. Time Alt. Az.
19 Jul 5.9 21:48:13 10° WSW 21:49:48 11° W 21:51:22 10° WNW visible
20 Jul 5.1 21:08:29 10° SSW 21:12:41 26° W 21:16:56 10° NW visible
22 Jul 5.7 21:35:41 10° SW 21:38:30 15° W 21:41:20 10° WNW visible
23 Jul 4.7 20:56:54 10° SSW 21:01:27 33° W 21:06:02 10° NNW visible
25 Jul 5.6 21:23:41 10° SW 21:27:13 19° W 21:30:47 10° NW visible
26 Jul 4.3 20:45:27 10° S 20:50:14 42° W 20:55:03 10° NNW visible
27 Jul 6.2 21:52:53 10° W 21:53:05 10° W 21:53:18 10° W visible
28 Jul 5.3 21:11:54 10° SSW 21:15:57 24° W 21:20:02 10° NW visible
